Зыряновский

Россия / Свердловская область     57°45′47″N   61°37′43″E
темп.,
°C
ветер,
м/с
пор.,
м/с
влажн.,
%
обл.,
%
осадки,
мм/ч
давл.,
гПа
погр.,
м
5 марта, пт
пт523:00−10ююз389344 0.0 996172
02:00−11ю389486 0.0 993212
05:00−7ююв4109593 1.4 990544
08:00−6ююз31095100 2.2 989589
11:00−3з5108699 2.3 992932
14:00−2зюз61081100 0.3 9941205
17:00−4зюз4881100 0.3 9961015
20:00−7зюз3108998 0.0 997410
6 марта, сб
сб623:00−10з4129066 0.0 999391
02:00−12з514880 0.0 1001457
05:00−13з514860 0.0 1003445
08:00−15зюз411920 0.0 1004329
11:00−10з5108325 0.0 1004920
14:00−8з61077100 0.1 10051438
17:00−9з61078100 0.2 10061383
20:00−13з4128899 0.1 1008629
7 марта, вс
вс723:00−16з3109259 0.1 1010324
02:00−19зюз33950 0.0 101179
05:00−20зюз23960 0.0 101151
08:00−21юз22960 0.0 101122
11:00−14ююз12860 0.0 1010305
14:00−9ююз118083 0.0 1008633
17:00−10юз018191 0.1 1006500
20:00−16ссз119698 0.0 100620
8 марта, пн
пн823:00−17зсз239694 0.1 100722
02:00−19з239847 0.0 100756
05:00−21з239532 0.0 100877
08:00−22зюз23960 0.0 100748
11:00−14ююз238610 0.0 1007304
14:00−11ююв3685100 0.0 1005647
17:00−11ююв4792100 0.2 1003583
20:00−12юв2795100 0.1 1003307
9 марта, вт
вт923:00−13юв2397100 0.4 100370
02:00−14юз229772 0.1 100426
05:00−14юз239464 0.1 100522
08:00−14юв2495100 0.0 100198
11:00−10в5994100 0.8 997493
14:00−7ссв4894100 2.6 995651
17:00−8сз61093100 5.2 998763
20:00−11сз51192100 0.6 1003658